This is the latest recevied weather packets stored in our database for station/object 5B4APJ-13. If no packets are shown the sender has not sent any weather packets the latest 10 day(s).
| Time | Temp. | Humidity | Pressure | Rain* | Wind** | Luminosity | Snow |
|---|---|---|---|---|---|---|---|
| 1777235530 | 15.56° C | 81% | 1011.1 hPa | 0 mm | 0 m/s | 0 W/m² | - |
| 1777235230 | 15.56° C | 82% | 1010.9 hPa | 0 mm | 0.45 m/s, 155° | 0 W/m² | - |
| 1777234930 | 15.56° C | 83% | 1010.7 hPa | 0 mm | 0.89 m/s, 154° | 0 W/m² | - |
| 1777234630 | 15° C | 83% | 1011 hPa | 0 mm | 0.45 m/s, 133° | 0 W/m² | - |
| 1777234330 | 15° C | 82% | 1011 hPa | 0 mm | 0 m/s | 0 W/m² | - |
| 1777234030 | 15° C | 82% | 1010.9 hPa | 0 mm | 0.45 m/s, 149° | 0 W/m² | - |
| 1777233730 | 15° C | 82% | 1010.9 hPa | 0 mm | 0.45 m/s, 122° | 0 W/m² | - |
| 1777233431 | 15° C | 82% | 1010.8 hPa | 0 mm | 0 m/s | 0 W/m² | - |
| 1777233130 | 15° C | 81% | 1010.7 hPa | 0 mm | 0.89 m/s, 132° | 0 W/m² | - |
| 1777232830 | 15° C | 81% | 1010.8 hPa | 0 mm | 0.89 m/s, 150° | 0 W/m² | - |
| 1777232530 | 15° C | 81% | 1010.7 hPa | 0 mm | 0 m/s | 0 W/m² | - |
| 1777232230 | 15° C | 81% | 1010.6 hPa | 0 mm | 0.45 m/s, 204° | 0 W/m² | - |
| 1777231930 | 15.56° C | 79% | 1010.6 hPa | 0 mm | 0 m/s | 0 W/m² | - |
| 1777231630 | 16.11° C | 78% | 1010.9 hPa | 0 mm | 0 m/s | 0 W/m² | - |
| 1777231330 | 16.11° C | 78% | 1010.8 hPa | 0 mm | 0.45 m/s, 206° | 0 W/m² | - |
| 1777231030 | 16.11° C | 78% | 1010.7 hPa | 0 mm | 0 m/s | 0 W/m² | - |
| 1777230730 | 16.67° C | 77% | 1010.5 hPa | 0 mm | 0.45 m/s, 98° | 0 W/m² | - |
| 1777230430 | 16.67° C | 74% | 1010.5 hPa | 0 mm | 1.34 m/s, 107° | 0 W/m² | - |
| 1777230131 | 16.67° C | 73% | 1010.4 hPa | 0 mm | 0.45 m/s, 343° | 0 W/m² | - |
| 1777229832 | 16.67° C | 76% | 1010.2 hPa | 0 mm | 2.24 m/s, 29° | 0 W/m² | - |
| 1777229530 | 16.67° C | 74% | 1010.2 hPa | 0 mm | 0.45 m/s, 6° | 0 W/m² | - |
| 1777229230 | 17.22° C | 73% | 1010.4 hPa | 0 mm | 0.45 m/s, 6° | 0 W/m² | - |
| 1777228930 | 17.78° C | 73% | 1010.5 hPa | 0 mm | 0 m/s | 0 W/m² | - |
| 1777228630 | 17.78° C | 72% | 1010.5 hPa | 0 mm | 0 m/s | 0 W/m² | - |
| 1777228330 | 17.78° C | 72% | 1010.4 hPa | 0 mm | 0.89 m/s, 353° | 0 W/m² | - |
* Rain latest hour (hover to see other rain measurements)
** Current wind speed in m/s (hover to see current wind gust speed)